TimeAKST,TemperatureF,Dew PointF,Humidity,Sea Level PressureIn,VisibilityMPH,Wind Direction,Wind SpeedMPH,Gust SpeedMPH,PrecipitationIn,Events,Conditions,WindDirDegrees,DateUTC
12:53 AM,3.9,1.0,88,30.33,9.0,North,5.8,-,0.00,Snow,Light Snow,10,2012-11-18 09:53:00
1:53 AM,5.0,1.0,84,30.33,6.0,North,5.8,-,0.00,Snow,Light Snow,10,2012-11-18 10:53:00
2:53 AM,5.0,1.9,87,30.34,9.0,ENE,3.5,-,0.00,Snow,Light Snow,60,2012-11-18 11:53:00
3:53 AM,5.0,1.0,84,30.34,9.0,NE,8.1,-,0.00,Snow,Light Snow,50,2012-11-18 12:53:00
4:53 AM,3.9,-0.0,84,30.35,8.0,NNE,4.6,-,0.00,Snow,Light Snow,30,2012-11-18 13:53:00
5:53 AM,3.9,1.0,88,30.36,7.0,NNE,5.8,-,0.00,Snow,Light Snow,20,2012-11-18 14:53:00
6:53 AM,3.9,-0.0,84,30.37,8.0,NE,8.1,-,0.00,Snow,Light Snow,40,2012-11-18 15:53:00
7:53 AM,3.9,-0.0,84,30.38,9.0,NNE,5.8,-,0.00,Snow,Light Snow,20,2012-11-18 16:53:00
8:53 AM,3.9,-0.0,84,30.38,10.0,Calm,Calm,-,N/A,,Overcast,0,2012-11-18 17:53:00
8:57 AM,5.0,1.4,85,30.38,10.0,NE,3.5,-,N/A,,Overcast,50,2012-11-18 17:57:00
9:53 AM,3.9,-0.0,84,30.40,10.0,NNE,5.8,-,0.00,,Overcast,30,2012-11-18 18:53:00
10:40 AM,5.0,1.4,85,30.40,10.0,East,3.5,-,0.00,,Overcast,80,2012-11-18 19:40:00
10:42 AM,5.0,1.4,85,30.40,10.0,Variable,4.6,-,N/A,,Overcast,0,2012-11-18 19:42:00
10:53 AM,3.9,1.0,88,30.41,10.0,Variable,3.5,-,N/A,Snow,Light Snow,0,2012-11-18 19:53:00
11:53 AM,3.9,1.0,88,30.41,10.0,ESE,3.5,-,0.00,,Overcast,110,2012-11-18 20:53:00
12:53 PM,3.9,-0.0,84,30.43,8.0,ENE,5.8,-,0.00,Snow,Light Snow,60,2012-11-18 21:53:00
1:53 PM,3.9,1.0,88,30.44,9.0,Calm,Calm,-,0.00,,Overcast,0,2012-11-18 22:53:00
2:53 PM,3.9,-0.9,80,30.44,7.0,Variable,3.5,-,0.00,,Overcast,0,2012-11-18 23:53:00
2:59 PM,3.2,1.4,92,30.44,10.0,Calm,Calm,-,N/A,,Overcast,0,2012-11-18 23:59:00
3:53 PM,3.0,-0.9,84,30.45,9.0,ESE,5.8,-,0.00,Snow,Light Snow,120,2012-11-19 00:53:00
4:48 PM,1.4,-0.4,92,30.46,7.0,SSE,3.5,-,0.00,Snow,Light Snow,150,2012-11-19 01:48:00
4:53 PM,1.9,-2.0,83,30.47,9.0,SSE,4.6,-,0.00,Snow,Light Snow,150,2012-11-19 01:53:00
5:14 PM,1.4,-2.2,85,30.47,9.0,Calm,Calm,-,0.00,Snow,Light Snow,0,2012-11-19 02:14:00
5:21 PM,1.4,-2.2,85,30.47,9.0,SSE,3.5,-,0.00,Snow,Light Snow,160,2012-11-19 02:21:00
5:53 PM,3.0,-2.0,80,30.48,9.0,East,4.6,-,0.00,Snow,Light Snow,100,2012-11-19 02:53:00
6:53 PM,1.9,-2.0,83,30.50,7.0,East,4.6,-,0.00,Snow,Light Snow,100,2012-11-19 03:53:00
7:53 PM,1.9,-0.0,91,30.51,9.0,Calm,Calm,-,0.00,Snow,Light Snow,0,2012-11-19 04:53:00
8:53 PM,1.9,-2.0,83,30.51,9.0,Calm,Calm,-,0.00,Snow,Light Snow,0,2012-11-19 05:53:00
9:17 PM,1.4,-0.4,92,30.51,9.0,Calm,Calm,-,0.00,Snow,Light Snow,0,2012-11-19 06:17:00
9:53 PM,3.0,-2.0,80,30.52,9.0,Calm,Calm,-,0.00,Snow,Light Snow,0,2012-11-19 06:53:00
10:53 PM,3.0,-0.9,84,30.53,9.0,Calm,Calm,-,0.00,Snow,Light Snow,0,2012-11-19 07:53:00
11:53 PM,3.9,-0.0,84,30.54,9.0,Calm,Calm,-,0.00,Snow,Light Snow,0,2012-11-19 08:53:00